Time,TemperatureF,DewpointF,PressureIn,WindDirection,WindDirectionDegrees,WindSpeedMPH,WindSpeedGustMPH,Humidity,HourlyPrecipIn,Conditions,Clouds,dailyrainin,SolarRadiationWatts/m^2,SoftwareType,DateUTC
2013-06-06 00:00:00,80.2,77.0,29.93,SE,132,4.0,4.0,90,0.00,,CLR,0.17,0.00,VWS V14.01,2013-06-06 04:00:00,
2013-06-06 00:01:00,80.2,77.0,29.93,SSE,149,2.0,5.0,90,0.00,,SCT110,0.00,0.00,VWS V14.01,2013-06-06 04:01:00,
2013-06-06 00:05:00,80.2,76.7,29.93,East,92,2.0,2.0,89,0.00,,CLR,0.00,0.00,VWS V14.01,2013-06-06 04:05:00,
2013-06-06 00:06:00,80.3,76.8,29.93,East,90,3.0,5.0,89,0.00,,SCT110,0.00,0.00,VWS V14.01,2013-06-06 04:06:00,
2013-06-06 00:10:00,80.3,76.8,29.93,SE,135,2.0,5.0,89,0.00,,CLR,0.00,0.00,VWS V14.01,2013-06-06 04:10:00,
2013-06-06 00:11:00,80.3,76.8,29.93,ENE,63,3.0,5.0,89,0.00,,SCT110,0.00,0.00,VWS V14.01,2013-06-06 04:11:00,
2013-06-06 00:15:00,80.3,77.1,29.93,SE,132,1.0,3.0,90,0.00,,CLR,0.00,0.00,VWS V14.01,2013-06-06 04:15:00,
2013-06-06 00:16:00,80.3,76.8,29.92,ESE,112,3.0,3.0,89,0.00,,SCT110,0.00,0.00,VWS V14.01,2013-06-06 04:16:00,
2013-06-06 00:20:00,80.4,76.9,29.92,ESE,122,2.0,8.0,89,0.00,,CLR,0.00,0.00,VWS V14.01,2013-06-06 04:20:00,
2013-06-06 00:22:00,80.4,76.9,29.92,SE,132,2.0,3.0,89,0.00,,SCT110,0.00,0.00,VWS V14.01,2013-06-06 04:22:00,
2013-06-06 00:25:00,80.4,77.2,29.92,ESE,111,3.0,5.0,90,0.00,,CLR,0.00,0.00,VWS V14.01,2013-06-06 04:25:00,
2013-06-06 00:27:00,80.4,77.2,29.92,SE,132,1.0,7.0,90,0.00,,SCT110,0.00,0.00,VWS V14.01,2013-06-06 04:27:00,
2013-06-06 00:30:00,80.4,77.2,29.92,ENE,75,3.0,10.0,90,0.00,,CLR,0.00,0.00,VWS V14.01,2013-06-06 04:30:00,
2013-06-06 00:32:00,80.4,77.2,29.92,East,90,2.0,7.0,90,0.00,,SCT110,0.00,0.00,VWS V14.01,2013-06-06 04:32:00,
2013-06-06 00:35:00,80.4,77.2,29.91,SE,134,2.0,4.0,90,0.00,,CLR,0.00,0.00,VWS V14.01,2013-06-06 04:35:00,
2013-06-06 00:37:00,80.4,77.2,29.91,SE,130,2.0,7.0,90,0.00,,SCT110,0.00,0.00,VWS V14.01,2013-06-06 04:37:00,
2013-06-06 00:40:00,80.3,76.8,29.91,SE,146,6.0,8.0,89,0.00,,CLR,0.00,0.00,VWS V14.01,2013-06-06 04:40:00,
2013-06-06 00:42:00,80.4,76.9,29.91,SE,129,2.0,7.0,89,0.00,,SCT110,0.00,0.00,VWS V14.01,2013-06-06 04:42:00,
2013-06-06 00:45:00,80.4,76.9,29.91,ESE,118,3.0,5.0,89,0.00,,CLR,0.00,0.00,VWS V14.01,2013-06-06 04:45:00,
2013-06-06 00:47:00,80.4,77.2,29.91,SSE,158,4.0,6.0,90,0.00,,SCT110,0.00,0.00,VWS V14.01,2013-06-06 04:47:00,
2013-06-06 00:50:00,80.4,77.2,29.91,SE,138,2.0,5.0,90,0.00,,CLR,0.00,0.00,VWS V14.01,2013-06-06 04:50:00,
2013-06-06 00:52:00,80.4,77.2,29.91,SSE,148,1.0,5.0,90,0.00,,BKN120,0.00,0.00,VWS V14.01,2013-06-06 04:52:00,
2013-06-06 00:55:00,80.3,77.1,29.91,SE,134,3.0,8.0,90,0.00,,CLR,0.00,0.00,VWS V14.01,2013-06-06 04:55:00,
2013-06-06 00:57:00,80.3,77.1,29.90,South,181,4.0,4.0,90,0.00,,BKN120,0.00,0.00,VWS V14.01,2013-06-06 04:57:00,
2013-06-06 01:00:00,80.3,77.1,29.91,SE,126,2.0,6.0,90,0.00,,CLR,0.00,0.00,VWS V14.01,2013-06-06 05:00:00,
2013-06-06 01:02:00,80.3,77.1,29.90,ENE,65,4.0,4.0,90,0.00,,BKN120,0.00,0.00,VWS V14.01,2013-06-06 05:02:00,
2013-06-06 01:05:00,80.3,77.1,29.90,SSE,163,4.0,8.0,90,0.00,,CLR,0.00,0.00,VWS V14.01,2013-06-06 05:05:00,
2013-06-06 01:07:00,80.3,77.1,29.90,SE,131,1.0,5.0,90,0.00,,BKN120,0.00,0.00,VWS V14.01,2013-06-06 05:07:00,
2013-06-06 01:10:00,80.2,77.0,29.90,ENE,70,4.0,10.0,90,0.00,,CLR,0.00,0.00,VWS V14.01,2013-06-06 05:10:00,
2013-06-06 01:12:00,80.2,77.0,29.90,SSE,153,3.0,5.0,90,0.00,,BKN120,0.00,0.00,VWS V14.01,2013-06-06 05:12:00,
2013-06-06 01:15:00,80.2,77.0,29.90,SE,132,3.0,4.0,90,0.00,,CLR,0.00,0.00,VWS V14.01,2013-06-06 05:15:00,
2013-06-06 01:17:00,80.2,77.0,29.90,South,175,5.0,8.0,90,0.00,,BKN120,0.00,0.00,VWS V14.01,2013-06-06 05:17:00,
2013-06-06 01:20:00,80.2,77.0,29.90,ESE,116,3.0,8.0,90,0.00,,CLR,0.00,0.00,VWS V14.01,2013-06-06 05:20:00,
2013-06-06 01:22:00,80.2,77.0,29.90,SE,130,6.0,8.0,90,0.00,,BKN120,0.00,0.00,VWS V14.01,2013-06-06 05:22:00,
2013-06-06 01:25:00,80.2,77.0,29.89,ESE,111,7.0,7.0,90,0.00,,CLR,0.00,0.00,VWS V14.01,2013-06-06 05:25:00,
2013-06-06 01:27:00,80.2,77.0,29.89,ESE,117,9.0,10.0,90,0.00,,BKN120,0.00,0.00,VWS V14.01,2013-06-06 05:27:00,
2013-06-06 01:30:00,80.2,77.0,29.89,East,88,3.0,5.0,90,0.00,,CLR,0.00,0.00,VWS V14.01,2013-06-06 05:30:00,
2013-06-06 01:32:00,80.2,76.7,29.89,SSE,152,3.0,7.0,89,0.00,,BKN120,0.00,0.00,VWS V14.01,2013-06-06 05:32:00,
2013-06-06 01:35:00,80.1,76.6,29.89,SE,128,3.0,7.0,89,0.00,,CLR,0.00,0.00,VWS V14.01,2013-06-06 05:35:00,
2013-06-06 01:37:00,80.1,76.6,29.89,SE,132,2.0,8.0,89,0.00,,BKN120,0.00,0.00,VWS V14.01,2013-06-06 05:37:00,
2013-06-06 01:40:00,80.1,76.6,29.89,SE,134,5.0,8.0,89,0.00,,CLR,0.00,0.00,VWS V14.01,2013-06-06 05:40:00,
2013-06-06 01:42:00,80.1,76.6,29.89,SE,124,4.0,13.0,89,0.00,,BKN120,0.00,0.00,VWS V14.01,2013-06-06 05:42:00,
2013-06-06 01:45:00,80.1,76.6,29.89,SSE,159,2.0,6.0,89,0.00,,CLR,0.00,0.00,VWS V14.01,2013-06-06 05:45:00,
2013-06-06 01:47:00,80.2,76.7,29.88,SE,132,9.0,12.0,89,0.00,,BKN120,0.00,0.00,VWS V14.01,2013-06-06 05:47:00,
2013-06-06 01:50:00,80.2,76.7,29.88,SE,135,5.0,7.0,89,0.00,,CLR,0.00,0.00,VWS V14.01,2013-06-06 05:50:00,
2013-06-06 01:52:00,80.3,76.8,29.88,SE,135,1.0,7.0,89,0.00,,-RA,0.00,0.00,VWS V14.01,2013-06-06 05:52:00,
2013-06-06 01:55:00,80.3,76.4,29.88,SE,126,3.0,9.0,88,0.00,,CLR,0.00,0.00,VWS V14.01,2013-06-06 05:55:00,
2013-06-06 01:57:00,80.3,76.4,29.88,SE,134,5.0,7.0,88,0.00,,-RA,0.00,0.00,VWS V14.01,2013-06-06 05:57:00,
2013-06-06 02:00:00,80.4,76.5,29.88,East,90,7.0,10.0,88,0.01,,CLR,0.01,0.00,VWS V14.01,2013-06-06 06:00:00,
2013-06-06 02:02:00,80.4,76.5,29.88,East,92,1.0,4.0,88,0.01,,-RA,0.01,0.00,VWS V14.01,2013-06-06 06:02:00,
2013-06-06 02:05:00,80.4,76.5,29.88,SE,132,5.0,10.0,88,0.01,,CLR,0.01,0.00,VWS V14.01,2013-06-06 06:05:00,
2013-06-06 02:07:00,80.4,76.5,29.88,SE,134,4.0,6.0,88,0.01,,-RA,0.01,0.00,VWS V14.01,2013-06-06 06:07:00,
2013-06-06 02:10:00,80.4,76.5,29.88,East,84,2.0,5.0,88,0.01,,CLR,0.01,0.00,VWS V14.01,2013-06-06 06:10:00,
2013-06-06 02:12:00,80.4,76.5,29.88,ESE,119,3.0,4.0,88,0.01,,-RA,0.01,0.00,VWS V14.01,2013-06-06 06:12:00,
2013-06-06 02:15:00,80.4,76.5,29.88,SSE,157,2.0,8.0,88,0.01,,CLR,0.01,0.00,VWS V14.01,2013-06-06 06:15:00,
2013-06-06 02:17:00,80.5,76.6,29.88,East,96,5.0,6.0,88,0.01,,-RA,0.01,0.00,VWS V14.01,2013-06-06 06:17:00,
2013-06-06 02:20:00,80.5,76.6,29.88,SSE,161,3.0,9.0,88,0.01,,CLR,0.01,0.00,VWS V14.01,2013-06-06 06:20:00,
2013-06-06 02:22:00,80.6,76.7,29.87,ESE,115,8.0,8.0,88,0.01,,-RA,0.01,0.00,VWS V14.01,2013-06-06 06:22:00,
2013-06-06 02:25:00,80.6,76.7,29.87,SSE,153,6.0,8.0,88,0.01,,CLR,0.01,0.00,VWS V14.01,2013-06-06 06:25:00,
2013-06-06 02:27:00,80.6,76.7,29.87,SE,134,3.0,9.0,88,0.01,,-RA,0.01,0.00,VWS V14.01,2013-06-06 06:27:00,
2013-06-06 02:30:00,80.6,76.7,29.87,SE,132,3.0,6.0,88,0.01,,CLR,0.01,0.00,VWS V14.01,2013-06-06 06:30:00,
2013-06-06 02:32:00,80.7,76.8,29.87,SE,133,2.0,7.0,88,0.01,,-RA,0.01,0.00,VWS V14.01,2013-06-06 06:32:00,
2013-06-06 02:35:00,80.7,76.8,29.87,SSE,162,3.0,4.0,88,0.01,,CLR,0.01,0.00,VWS V14.01,2013-06-06 06:35:00,
2013-06-06 02:37:00,80.6,76.7,29.87,SE,129,5.0,6.0,88,0.01,,-RA,0.01,0.00,VWS V14.01,2013-06-06 06:37:00,
2013-06-06 02:40:00,80.7,76.8,29.87,SE,134,5.0,14.0,88,0.01,,CLR,0.01,0.00,VWS V14.01,2013-06-06 06:40:00,
2013-06-06 02:42:00,80.6,76.7,29.87,SE,132,5.0,11.0,88,0.01,,-RA,0.01,0.00,VWS V14.01,2013-06-06 06:42:00,
2013-06-06 02:45:00,80.6,76.7,29.87,ESE,112,5.0,6.0,88,0.01,,CLR,0.01,0.00,VWS V14.01,2013-06-06 06:45:00,
2013-06-06 02:47:00,80.6,76.7,29.87,South,184,6.0,9.0,88,0.01,,-RA,0.01,0.00,VWS V14.01,2013-06-06 06:47:00,
2013-06-06 02:50:00,80.6,76.7,29.87,ESE,119,4.0,10.0,88,0.01,,CLR,0.01,0.00,VWS V14.01,2013-06-06 06:50:00,
2013-06-06 02:52:00,80.5,76.6,29.87,SE,130,8.0,13.0,88,0.01,,OVC044,0.01,0.00,VWS V14.01,2013-06-06 06:52:00,
2013-06-06 02:55:00,80.5,76.6,29.86,SE,133,3.0,9.0,88,0.01,,CLR,0.01,0.00,VWS V14.01,2013-06-06 06:55:00,
2013-06-06 02:57:00,80.5,76.6,29.86,SSE,155,4.0,11.0,88,0.01,,OVC044,0.01,0.00,VWS V14.01,2013-06-06 06:57:00,
2013-06-06 03:00:00,80.5,76.6,29.86,SSE,154,2.0,10.0,88,0.01,,CLR,0.01,0.00,VWS V14.01,2013-06-06 07:00:00,
2013-06-06 03:02:00,80.5,76.6,29.86,ENE,74,3.0,7.0,88,0.02,,OVC044,0.03,0.00,VWS V14.01,2013-06-06 07:02:00,
2013-06-06 03:05:00,80.5,76.6,29.86,SE,146,4.0,10.0,88,0.02,,CLR,0.03,0.00,VWS V14.01,2013-06-06 07:05:00,
2013-06-06 03:07:00,80.4,76.5,29.85,East,83,9.0,9.0,88,0.02,,OVC044,0.03,0.00,VWS V14.01,2013-06-06 07:07:00,
2013-06-06 03:10:00,80.3,76.4,29.85,ESE,118,2.0,8.0,88,0.02,,CLR,0.03,0.00,VWS V14.01,2013-06-06 07:10:00,
2013-06-06 03:12:00,80.3,76.8,29.85,SSE,152,6.0,6.0,89,0.02,,OVC044,0.03,0.00,VWS V14.01,2013-06-06 07:12:00,
2013-06-06 03:15:00,80.2,76.7,29.85,ENE,66,3.0,10.0,89,0.02,,CLR,0.03,0.00,VWS V14.01,2013-06-06 07:15:00,
2013-06-06 03:17:00,80.1,76.6,29.85,NE,44,4.0,14.0,89,0.02,,OVC044,0.03,0.00,VWS V14.01,2013-06-06 07:17:00,
2013-06-06 03:20:00,80.1,76.6,29.85,SSE,159,7.0,10.0,89,0.03,,CLR,0.04,0.00,VWS V14.01,2013-06-06 07:20:00,
2013-06-06 03:22:00,79.9,76.4,29.85,SSE,153,1.0,7.0,89,0.03,,OVC044,0.04,0.00,VWS V14.01,2013-06-06 07:22:00,
2013-06-06 03:25:00,79.9,76.7,29.85,NE,53,5.0,7.0,90,0.03,,CLR,0.04,0.00,VWS V14.01,2013-06-06 07:25:00,
2013-06-06 03:27:00,79.8,76.6,29.85,SE,132,7.0,10.0,90,0.05,,OVC044,0.06,0.00,VWS V14.01,2013-06-06 07:27:00,
2013-06-06 03:30:00,79.7,76.5,29.85,ESE,113,4.0,9.0,90,0.06,,CLR,0.07,0.00,VWS V14.01,2013-06-06 07:30:00,
2013-06-06 03:32:00,79.7,76.5,29.84,SE,126,1.0,8.0,90,0.07,,OVC044,0.08,0.00,VWS V14.01,2013-06-06 07:32:00,
2013-06-06 03:35:00,79.6,76.4,29.85,SE,133,4.0,8.0,90,0.08,,CLR,0.09,0.00,VWS V14.01,2013-06-06 07:35:00,
2013-06-06 03:37:00,79.5,76.3,29.85,SE,137,6.0,8.0,90,0.08,,OVC044,0.09,0.00,VWS V14.01,2013-06-06 07:37:00,
2013-06-06 03:40:00,79.4,76.2,29.85,SE,127,5.0,12.0,90,0.08,,CLR,0.09,0.00,VWS V14.01,2013-06-06 07:40:00,
2013-06-06 03:42:00,79.3,76.4,29.85,SE,131,6.0,8.0,91,0.08,,OVC044,0.09,0.00,VWS V14.01,2013-06-06 07:42:00,
2013-06-06 03:45:00,79.3,76.4,29.85,SSE,156,3.0,11.0,91,0.09,,CLR,0.10,0.00,VWS V14.01,2013-06-06 07:45:00,
2013-06-06 03:47:00,79.2,76.3,29.85,SE,133,5.0,9.0,91,0.09,,OVC044,0.10,0.00,VWS V14.01,2013-06-06 07:47:00,
2013-06-06 03:50:00,79.2,76.3,29.85,SE,132,3.0,5.0,91,0.09,,CLR,0.10,0.00,VWS V14.01,2013-06-06 07:50:00,
2013-06-06 03:52:00,79.2,76.7,29.84,SSE,156,5.0,7.0,92,0.10,,-RA,0.11,0.00,VWS V14.01,2013-06-06 07:52:00,
2013-06-06 03:55:00,79.2,76.7,29.84,SE,132,4.0,6.0,92,0.10,,CLR,0.11,0.00,VWS V14.01,2013-06-06 07:55:00,
2013-06-06 03:57:00,79.2,76.7,29.84,SSE,159,2.0,6.0,92,0.10,,-RA,0.11,0.00,VWS V14.01,2013-06-06 07:57:00,
2013-06-06 04:00:00,79.2,76.7,29.84,SE,133,2.0,10.0,92,0.10,,CLR,0.11,0.00,VWS V14.01,2013-06-06 08:00:00,
2013-06-06 04:02:00,79.2,76.7,29.85,South,181,7.0,8.0,92,0.12,,-RA,0.13,0.00,VWS V14.01,2013-06-06 08:02:00,
2013-06-06 04:05:00,79.3,76.8,29.85,East,89,7.0,11.0,92,0.24,,CLR,0.25,0.00,VWS V14.01,2013-06-06 08:05:00,
2013-06-06 04:07:00,78.9,76.1,29.84,SSE,167,8.0,11.0,91,0.23,,-RA,0.26,0.00,VWS V14.01,2013-06-06 08:07:00,
2013-06-06 04:10:00,78.8,75.9,29.84,SSE,168,8.0,8.0,91,0.23,,CLR,0.26,0.00,VWS V14.01,2013-06-06 08:10:00,
2013-06-06 04:12:00,78.6,76.1,29.84,ESE,123,4.0,10.0,92,0.26,,-RA,0.29,0.00,VWS V14.01,2013-06-06 08:12:00,
2013-06-06 04:15:00,78.5,75.7,29.85,SE,128,3.0,11.0,91,0.34,,CLR,0.37,0.00,VWS V14.01,2013-06-06 08:15:00,
2013-06-06 04:17:00,77.8,74.3,29.84,SSE,151,1.0,5.0,89,0.36,,-RA,0.39,0.00,VWS V14.01,2013-06-06 08:17:00,
2013-06-06 04:20:00,77.3,73.5,29.84,SE,130,1.0,3.0,88,0.36,,CLR,0.39,0.00,VWS V14.01,2013-06-06 08:20:00,
2013-06-06 04:22:00,76.8,73.7,29.84,South,190,5.0,9.0,90,0.35,,-RA,0.39,0.00,VWS V14.01,2013-06-06 08:22:00,
2013-06-06 04:25:00,76.8,74.3,29.84,East,87,7.0,8.0,92,0.35,,CLR,0.39,0.00,VWS V14.01,2013-06-06 08:25:00,
2013-06-06 04:27:00,77.1,74.9,29.85,WSW,242,5.0,6.0,93,0.36,,-RA,0.40,0.00,VWS V14.01,2013-06-06 08:27:00,
2013-06-06 04:30:00,77.2,75.3,29.85,SW,215,2.0,7.0,94,0.36,,CLR,0.40,0.00,VWS V14.01,2013-06-06 08:30:00,
2013-06-06 04:32:00,77.3,75.1,29.85,SW,218,3.0,5.0,93,0.34,,-RA,0.41,0.00,VWS V14.01,2013-06-06 08:32:00,
2013-06-06 04:35:00,77.3,75.1,29.84,South,188,2.0,3.0,93,0.35,,CLR,0.42,0.00,VWS V14.01,2013-06-06 08:35:00,
2013-06-06 04:37:00,77.3,75.1,29.85,South,186,1.0,4.0,93,0.33,,-RA,0.42,0.00,VWS V14.01,2013-06-06 08:37:00,
2013-06-06 04:40:00,77.3,75.4,29.85,SSE,148,2.0,4.0,94,0.34,,CLR,0.43,0.00,VWS V14.01,2013-06-06 08:40:00,
2013-06-06 04:42:00,77.7,75.8,29.85,SSE,157,3.0,8.0,94,0.34,,-RA,0.43,0.00,VWS V14.01,2013-06-06 08:42:00,
2013-06-06 04:45:00,77.9,76.4,29.85,SSE,154,4.0,9.0,95,0.35,,CLR,0.44,0.00,VWS V14.01,2013-06-06 08:45:00,
2013-06-06 04:47:00,78.1,76.6,29.85,SE,133,8.0,12.0,95,0.34,,-RA,0.44,0.00,VWS V14.01,2013-06-06 08:47:00,
2013-06-06 04:50:00,78.1,76.2,29.85,SE,131,5.0,6.0,94,0.34,,CLR,0.44,0.00,VWS V14.01,2013-06-06 08:50:00,
2013-06-06 04:52:00,78.1,76.2,29.85,SE,134,6.0,11.0,94,0.35,,-RA,0.45,0.00,VWS V14.01,2013-06-06 08:52:00,
2013-06-06 04:55:00,78.1,76.2,29.85,SE,138,3.0,8.0,94,0.35,,CLR,0.45,0.00,VWS V14.01,2013-06-06 08:55:00,
2013-06-06 04:57:00,78.0,76.1,29.85,SSE,153,6.0,10.0,94,0.34,,-RA,0.45,0.00,VWS V14.01,2013-06-06 08:57:00,
2013-06-06 05:00:00,78.0,76.1,29.85,SE,137,5.0,5.0,94,0.35,,CLR,0.46,0.00,VWS V14.01,2013-06-06 09:00:00,
2013-06-06 05:02:00,78.0,76.1,29.85,South,178,4.0,6.0,94,0.35,,-RA,0.46,0.00,VWS V14.01,2013-06-06 09:02:00,
2013-06-06 05:05:00,78.0,76.1,29.85,SE,134,3.0,7.0,94,0.35,,CLR,0.46,0.00,VWS V14.01,2013-06-06 09:05:00,
2013-06-06 05:07:00,77.9,76.0,29.85,SE,132,6.0,7.0,94,0.22,,-RA,0.47,0.00,VWS V14.01,2013-06-06 09:07:00,
2013-06-06 05:10:00,77.9,76.0,29.85,SE,132,1.0,5.0,94,0.22,,CLR,0.47,0.00,VWS V14.01,2013-06-06 09:10:00,
2013-06-06 05:12:00,77.9,76.0,29.85,SSE,156,3.0,6.0,94,0.21,,-RA,0.47,0.00,VWS V14.01,2013-06-06 09:12:00,
2013-06-06 05:15:00,77.9,76.0,29.84,SSE,152,1.0,5.0,94,0.21,,CLR,0.47,0.00,VWS V14.01,2013-06-06 09:15:00,
2013-06-06 05:17:00,77.9,76.0,29.84,SE,134,4.0,8.0,94,0.10,,-RA,0.47,0.00,VWS V14.01,2013-06-06 09:17:00,
2013-06-06 05:20:00,77.9,76.0,29.84,SSE,152,2.0,8.0,94,0.11,,CLR,0.48,0.00,VWS V14.01,2013-06-06 09:20:00,
2013-06-06 05:22:00,77.9,76.0,29.83,ESE,111,1.0,8.0,94,0.09,,-RA,0.48,0.00,VWS V14.01,2013-06-06 09:22:00,
2013-06-06 05:25:00,77.9,76.0,29.83,SE,134,2.0,5.0,94,0.09,,CLR,0.48,0.00,VWS V14.01,2013-06-06 09:25:00,
2013-06-06 05:27:00,77.8,75.9,29.83,SE,133,3.0,6.0,94,0.09,,-RA,0.48,0.00,VWS V14.01,2013-06-06 09:27:00,
2013-06-06 05:30:00,77.9,76.0,29.84,SE,131,2.0,9.0,94,0.09,,CLR,0.48,0.00,VWS V14.01,2013-06-06 09:30:00,
2013-06-06 05:32:00,78.0,76.1,29.84,SSE,155,3.0,8.0,94,0.08,,-RA,0.48,0.00,VWS V14.01,2013-06-06 09:32:00,
2013-06-06 05:35:00,78.0,76.1,29.84,SE,132,5.0,8.0,94,0.09,,CLR,0.49,0.00,VWS V14.01,2013-06-06 09:35:00,
2013-06-06 05:37:00,78.1,76.2,29.84,SSE,168,4.0,8.0,94,0.07,,-RA,0.49,0.00,VWS V14.01,2013-06-06 09:37:00,
2013-06-06 05:40:00,78.2,76.3,29.84,South,182,4.0,12.0,94,0.07,,CLR,0.49,0.00,VWS V14.01,2013-06-06 09:40:00,
2013-06-06 05:42:00,78.3,76.4,29.84,South,170,6.0,10.0,94,0.06,,-RA,0.49,0.00,VWS V14.01,2013-06-06 09:42:00,
2013-06-06 05:45:00,78.3,76.4,29.84,SSE,155,3.0,8.0,94,0.06,,CLR,0.49,0.00,VWS V14.01,2013-06-06 09:45:00,
2013-06-06 05:47:00,78.4,76.5,29.84,South,183,6.0,10.0,94,0.05,,-RA,0.49,0.00,VWS V14.01,2013-06-06 09:47:00,
2013-06-06 05:50:00,78.4,76.5,29.84,South,190,4.0,10.0,94,0.05,,CLR,0.49,0.00,VWS V14.01,2013-06-06 09:50:00,
2013-06-06 05:52:00,78.4,76.5,29.84,South,176,4.0,8.0,94,0.05,,-RA,0.49,0.00,VWS V14.01,2013-06-06 09:52:00,
2013-06-06 05:55:00,78.5,76.6,29.84,South,186,3.0,5.0,94,0.05,,CLR,0.49,0.00,VWS V14.01,2013-06-06 09:55:00,
2013-06-06 05:57:00,78.5,76.6,29.83,South,170,3.0,7.0,94,0.05,,-RA,0.50,0.00,VWS V14.01,2013-06-06 09:57:00,
2013-06-06 06:00:00,78.5,76.6,29.83,SE,135,7.0,8.0,94,0.05,,CLR,0.50,0.00,VWS V14.01,2013-06-06 10:00:00,
2013-06-06 06:02:00,78.5,76.6,29.83,SSE,159,5.0,8.0,94,0.04,,-RA,0.50,0.00,VWS V14.01,2013-06-06 10:02:00,
2013-06-06 06:05:00,78.5,76.6,29.83,SSW,202,6.0,9.0,94,0.04,,CLR,0.50,0.00,VWS V14.01,2013-06-06 10:05:00,
2013-06-06 06:07:00,78.6,76.7,29.83,South,172,3.0,7.0,94,0.05,,-RA,0.51,0.00,VWS V14.01,2013-06-06 10:07:00,
2013-06-06 06:10:00,78.6,76.7,29.83,SSW,201,5.0,7.0,94,0.05,,CLR,0.51,0.00,VWS V14.01,2013-06-06 10:10:00,
2013-06-06 06:12:00,78.6,76.7,29.83,South,177,5.0,9.0,94,0.04,,-RA,0.51,0.00,VWS V14.01,2013-06-06 10:12:00,
2013-06-06 06:15:00,78.6,76.7,29.83,SE,132,7.0,8.0,94,0.05,,CLR,0.52,0.00,VWS V14.01,2013-06-06 10:15:00,
2013-06-06 06:17:00,78.6,76.7,29.83,SE,132,2.0,8.0,94,0.05,,-RA,0.52,0.00,VWS V14.01,2013-06-06 10:17:00,
2013-06-06 06:20:00,78.6,76.7,29.83,SSE,158,6.0,9.0,94,0.06,,CLR,0.53,0.00,VWS V14.01,2013-06-06 10:20:00,
2013-06-06 06:22:00,78.6,76.7,29.83,SSE,154,5.0,8.0,94,0.05,,-RA,0.53,0.00,VWS V14.01,2013-06-06 10:22:00,
2013-06-06 06:25:00,78.6,76.7,29.83,South,184,4.0,10.0,94,0.05,,CLR,0.53,0.00,VWS V14.01,2013-06-06 10:25:00,
2013-06-06 06:26:00,78.6,76.7,29.82,SSE,153,6.0,8.0,94,0.06,,-RA,0.54,0.00,VWS V14.01,2013-06-06 10:26:00,
2013-06-06 06:30:00,78.6,76.7,29.82,SSE,151,6.0,9.0,94,0.06,,CLR,0.54,0.00,VWS V14.01,2013-06-06 10:30:00,
2013-06-06 06:31:00,78.6,76.7,29.82,SSE,148,5.0,8.0,94,0.06,,-RA,0.54,0.00,VWS V14.01,2013-06-06 10:31:00,
2013-06-06 06:35:00,78.6,76.7,29.82,SSE,153,3.0,11.0,94,0.06,,CLR,0.54,0.00,VWS V14.01,2013-06-06 10:35:00,
2013-06-06 06:37:00,78.6,76.7,29.82,East,88,5.0,10.0,94,0.05,,-RA,0.54,0.00,VWS V14.01,2013-06-06 10:37:00,
2013-06-06 06:40:00,78.6,76.7,29.82,SSE,151,4.0,7.0,94,0.05,,CLR,0.54,0.00,VWS V14.01,2013-06-06 10:40:00,
2013-06-06 06:42:00,78.5,76.6,29.82,East,85,6.0,7.0,94,0.05,,-RA,0.54,0.00,VWS V14.01,2013-06-06 10:42:00,
2013-06-06 06:45:00,78.6,76.7,29.82,ESE,118,13.0,13.0,94,0.05,,CLR,0.54,0.00,VWS V14.01,2013-06-06 10:45:00,
2013-06-06 06:47:00,78.5,76.6,29.82,SSE,155,5.0,12.0,94,0.05,,-RA,0.54,0.00,VWS V14.01,2013-06-06 10:47:00,
2013-06-06 06:50:00,78.5,76.6,29.82,SE,132,4.0,10.0,94,0.05,,CLR,0.54,0.00,VWS V14.01,2013-06-06 10:50:00,
2013-06-06 06:52:00,78.6,76.7,29.82,SE,130,5.0,8.0,94,0.05,,-RA,0.54,0.00,VWS V14.01,2013-06-06 10:52:00,
2013-06-06 06:55:00,78.6,76.7,29.82,ESE,115,3.0,9.0,94,0.06,,CLR,0.55,0.00,VWS V14.01,2013-06-06 10:55:00,
2013-06-06 06:57:00,78.6,76.7,29.82,East,86,5.0,14.0,94,0.06,,-RA,0.55,0.00,VWS V14.01,2013-06-06 10:57:00,
2013-06-06 07:00:00,78.6,76.7,29.82,SE,131,11.0,14.0,94,0.06,,CLR,0.55,0.00,VWS V14.01,2013-06-06 11:00:00,
2013-06-06 07:02:00,78.5,76.6,29.82,SE,132,8.0,9.0,94,0.05,,-RA,0.55,5.00,VWS V14.01,2013-06-06 11:02:00,
2013-06-06 07:05:00,78.4,76.5,29.82,SSE,164,8.0,15.0,94,0.05,,CLR,0.55,5.00,VWS V14.01,2013-06-06 11:05:00,
2013-06-06 07:07:00,78.4,76.2,29.83,SE,134,4.0,9.0,93,0.05,,-RA,0.55,5.00,VWS V14.01,2013-06-06 11:07:00,
2013-06-06 07:10:00,78.3,76.4,29.83,SSE,156,7.0,11.0,94,0.05,,CLR,0.55,5.00,VWS V14.01,2013-06-06 11:10:00,
2013-06-06 07:12:00,78.3,76.4,29.82,SSE,156,15.0,15.0,94,0.04,,-RA,0.55,5.00,VWS V14.01,2013-06-06 11:12:00,
2013-06-06 07:15:00,78.3,76.4,29.82,WSW,240,6.0,7.0,94,0.04,,CLR,0.55,5.00,VWS V14.01,2013-06-06 11:15:00,
2013-06-06 07:17:00,78.4,76.5,29.82,South,185,12.0,12.0,94,0.03,,-RA,0.55,5.00,VWS V14.01,2013-06-06 11:17:00,
2013-06-06 07:20:00,78.4,76.5,29.82,SE,128,6.0,13.0,94,0.03,,CLR,0.55,5.00,VWS V14.01,2013-06-06 11:20:00,
2013-06-06 07:22:00,78.5,76.6,29.82,SW,221,7.0,11.0,94,0.02,,-RA,0.55,7.00,VWS V14.01,2013-06-06 11:22:00,
2013-06-06 07:25:00,78.5,76.6,29.83,SE,132,5.0,14.0,94,0.02,,CLR,0.55,7.00,VWS V14.01,2013-06-06 11:25:00,
2013-06-06 07:27:00,78.6,76.7,29.83,SE,146,4.0,12.0,94,0.02,,-RA,0.55,9.00,VWS V14.01,2013-06-06 11:27:00,
2013-06-06 07:30:00,78.7,76.8,29.83,SSE,155,2.0,8.0,94,0.02,,CLR,0.55,9.00,VWS V14.01,2013-06-06 11:30:00,
2013-06-06 07:32:00,78.8,76.9,29.83,SSE,161,9.0,9.0,94,0.01,,-RA,0.55,11.00,VWS V14.01,2013-06-06 11:32:00,
2013-06-06 07:35:00,78.8,76.9,29.83,SSE,156,5.0,12.0,94,0.01,,CLR,0.55,11.00,VWS V14.01,2013-06-06 11:35:00,
2013-06-06 07:37:00,78.9,77.0,29.82,SSE,153,5.0,7.0,94,0.01,,-RA,0.55,12.00,VWS V14.01,2013-06-06 11:37:00,
2013-06-06 07:40:00,78.9,76.7,29.82,South,180,7.0,10.0,93,0.01,,CLR,0.55,16.00,VWS V14.01,2013-06-06 11:40:00,
2013-06-06 07:42:00,78.9,76.7,29.83,South,190,3.0,10.0,93,0.01,,-RA,0.55,18.00,VWS V14.01,2013-06-06 11:42:00,
2013-06-06 07:45:00,79.0,76.8,29.83,SE,134,7.0,10.0,93,0.01,,CLR,0.55,18.00,VWS V14.01,2013-06-06 11:45:00,
2013-06-06 07:47:00,79.0,76.8,29.83,South,181,3.0,9.0,93,0.01,,-RA,0.55,23.00,VWS V14.01,2013-06-06 11:47:00,
2013-06-06 07:50:00,79.1,76.9,29.83,SE,132,7.0,8.0,93,0.01,,CLR,0.55,26.00,VWS V14.01,2013-06-06 11:50:00,
2013-06-06 07:52:00,79.1,76.9,29.83,SW,234,7.0,10.0,93,0.01,,BKN039,0.55,32.00,VWS V14.01,2013-06-06 11:52:00,
2013-06-06 07:55:00,79.1,76.9,29.83,SE,135,3.0,12.0,93,0.01,,CLR,0.55,37.00,VWS V14.01,2013-06-06 11:55:00,
2013-06-06 07:57:00,79.2,77.0,29.84,SSE,158,5.0,12.0,93,0.00,,BKN039,0.55,37.00,VWS V14.01,2013-06-06 11:57:00,
2013-06-06 08:00:00,79.2,77.0,29.84,SW,215,3.0,9.0,93,0.00,,CLR,0.55,39.00,VWS V14.01,2013-06-06 12:00:00,
2013-06-06 08:02:00,79.3,77.1,29.84,SE,146,5.0,9.0,93,0.00,,BKN039,0.55,39.00,VWS V14.01,2013-06-06 12:02:00,
2013-06-06 08:05:00,79.3,77.1,29.84,SSE,161,3.0,8.0,93,0.00,,CLR,0.55,40.00,VWS V14.01,2013-06-06 12:05:00,
2013-06-06 08:07:00,79.4,76.9,29.84,SSE,164,3.0,8.0,92,0.00,,BKN039,0.55,44.00,VWS V14.01,2013-06-06 12:07:00,
2013-06-06 08:10:00,79.4,76.9,29.84,SSE,159,7.0,8.0,92,0.00,,CLR,0.55,46.00,VWS V14.01,2013-06-06 12:10:00,
2013-06-06 08:12:00,79.5,77.0,29.85,South,175,2.0,11.0,92,0.00,,BKN039,0.55,46.00,VWS V14.01,2013-06-06 12:12:00,
2013-06-06 08:15:00,79.5,77.0,29.85,WSW,246,7.0,8.0,92,0.00,,CLR,0.55,47.00,VWS V14.01,2013-06-06 12:15:00,
2013-06-06 08:17:00,79.6,77.1,29.85,SSE,157,4.0,8.0,92,0.00,,BKN039,0.55,44.00,VWS V14.01,2013-06-06 12:17:00,
2013-06-06 08:20:00,79.6,77.1,29.86,SE,134,4.0,7.0,92,0.00,,CLR,0.55,42.00,VWS V14.01,2013-06-06 12:20:00,
2013-06-06 08:22:00,79.6,77.1,29.86,SSW,200,7.0,10.0,92,0.00,,BKN039,0.55,44.00,VWS V14.01,2013-06-06 12:22:00,
2013-06-06 08:25:00,79.7,77.2,29.86,SSE,154,7.0,7.0,92,0.00,,CLR,0.55,46.00,VWS V14.01,2013-06-06 12:25:00,
2013-06-06 08:27:00,79.7,76.8,29.86,South,189,3.0,8.0,91,0.00,,BKN039,0.55,46.00,VWS V14.01,2013-06-06 12:27:00,
2013-06-06 08:30:00,79.7,76.8,29.86,SSE,159,3.0,9.0,91,0.00,,CLR,0.55,42.00,VWS V14.01,2013-06-06 12:30:00,
2013-06-06 08:32:00,79.8,76.9,29.86,SE,130,2.0,6.0,91,0.00,,BKN039,0.55,39.00,VWS V14.01,2013-06-06 12:32:00,
2013-06-06 08:35:00,79.8,76.9,29.86,South,170,3.0,6.0,91,0.00,,CLR,0.55,37.00,VWS V14.01,2013-06-06 12:35:00,
2013-06-06 08:37:00,79.9,77.0,29.86,South,182,5.0,6.0,91,0.00,,BKN039,0.55,39.00,VWS V14.01,2013-06-06 12:37:00,
2013-06-06 08:40:00,79.9,77.0,29.86,South,180,4.0,7.0,91,0.00,,CLR,0.55,39.00,VWS V14.01,2013-06-06 12:40:00,
2013-06-06 08:42:00,80.0,76.8,29.86,South,190,4.0,11.0,90,0.00,,SCT120,0.55,47.00,VWS V14.01,2013-06-06 12:42:00,
2013-06-06 08:45:00,80.0,76.8,29.86,South,173,4.0,7.0,90,0.00,,CLR,0.55,49.00,VWS V14.01,2013-06-06 12:45:00,
2013-06-06 08:47:00,80.1,76.9,29.86,South,190,2.0,9.0,90,0.00,,SCT120,0.55,58.00,VWS V14.01,2013-06-06 12:47:00,
2013-06-06 08:50:00,80.1,76.9,29.86,SSE,160,6.0,9.0,90,0.00,,CLR,0.55,62.00,VWS V14.01,2013-06-06 12:50:00,
2013-06-06 08:52:00,80.2,77.0,29.86,SE,134,5.0,11.0,90,0.00,,SCT120,0.55,69.00,VWS V14.01,2013-06-06 12:52:00,
2013-06-06 08:55:00,80.2,77.0,29.86,SSE,159,8.0,11.0,90,0.00,,CLR,0.55,74.00,VWS V14.01,2013-06-06 12:55:00,
2013-06-06 08:57:00,80.3,77.1,29.87,SE,128,7.0,9.0,90,0.00,,SCT120,0.55,81.00,VWS V14.01,2013-06-06 12:57:00,
2013-06-06 09:00:00,80.4,77.2,29.87,SSE,157,4.0,6.0,90,0.00,,CLR,0.55,83.00,VWS V14.01,2013-06-06 13:00:00,
2013-06-06 09:02:00,80.5,77.3,29.87,SSE,153,3.0,8.0,90,0.00,,SCT120,0.55,90.00,VWS V14.01,2013-06-06 13:02:00,
2013-06-06 09:05:00,80.5,77.3,29.87,SSW,199,4.0,11.0,90,0.00,,CLR,0.55,81.00,VWS V14.01,2013-06-06 13:05:00,
2013-06-06 09:07:00,80.6,77.4,29.87,SE,142,6.0,11.0,90,0.00,,SCT120,0.55,95.00,VWS V14.01,2013-06-06 13:07:00,
2013-06-06 09:10:00,80.7,77.5,29.87,South,186,4.0,9.0,90,0.00,,CLR,0.55,113.00,VWS V14.01,2013-06-06 13:10:00,
2013-06-06 09:12:00,80.8,77.6,29.87,SSE,157,4.0,11.0,90,0.00,,SCT120,0.55,132.00,VWS V14.01,2013-06-06 13:12:00,
2013-06-06 09:15:00,80.9,77.7,29.88,SSE,162,3.0,9.0,90,0.00,,CLR,0.55,113.00,VWS V14.01,2013-06-06 13:15:00,
2013-06-06 09:17:00,81.0,77.8,29.87,SSE,157,7.0,9.0,90,0.00,,SCT120,0.55,107.00,VWS V14.01,2013-06-06 13:17:00,
2013-06-06 09:20:00,81.0,77.5,29.88,South,180,5.0,8.0,89,0.00,,CLR,0.55,132.00,VWS V14.01,2013-06-06 13:20:00,
2013-06-06 09:22:00,81.2,77.7,29.87,SSE,157,4.0,8.0,89,0.00,,SCT120,0.55,167.00,VWS V14.01,2013-06-06 13:22:00,
2013-06-06 09:25:00,81.2,77.7,29.87,South,190,5.0,6.0,89,0.00,,CLR,0.55,158.00,VWS V14.01,2013-06-06 13:25:00,
2013-06-06 09:27:00,81.4,77.8,29.88,SSE,155,3.0,9.0,89,0.00,,SCT120,0.55,211.00,VWS V14.01,2013-06-06 13:27:00,
2013-06-06 09:30:00,81.5,77.9,29.87,SSE,159,6.0,11.0,89,0.00,,CLR,0.55,223.00,VWS V14.01,2013-06-06 13:30:00,
2013-06-06 09:32:00,81.6,78.1,29.88,SSE,154,9.0,9.0,89,0.00,,SCT120,0.55,160.00,VWS V14.01,2013-06-06 13:32:00,
2013-06-06 09:35:00,81.7,78.1,29.88,SSW,192,4.0,10.0,89,0.00,,CLR,0.55,171.00,VWS V14.01,2013-06-06 13:35:00,
2013-06-06 09:37:00,81.8,77.9,29.87,SE,131,6.0,10.0,88,0.00,,SCT120,0.55,223.00,VWS V14.01,2013-06-06 13:37:00,
2013-06-06 09:40:00,81.9,78.0,29.88,SE,131,3.0,12.0,88,0.00,,CLR,0.55,236.00,VWS V14.01,2013-06-06 13:40:00,
2013-06-06 09:42:00,82.0,78.1,29.88,SE,134,5.0,10.0,88,0.00,,SCT120,0.55,244.00,VWS V14.01,2013-06-06 13:42:00,
2013-06-06 09:45:00,82.1,78.2,29.88,WSW,243,13.0,13.0,88,0.00,,CLR,0.55,229.00,VWS V14.01,2013-06-06 13:45:00,
2013-06-06 09:47:00,82.3,78.4,29.88,SSW,209,8.0,11.0,88,0.00,,SCT120,0.55,246.00,VWS V14.01,2013-06-06 13:47:00,
2013-06-06 09:50:00,82.3,78.1,29.88,SSE,155,10.0,12.0,87,0.00,,CLR,0.55,251.00,VWS V14.01,2013-06-06 13:50:00,
2013-06-06 09:52:00,82.4,78.1,29.88,SSE,153,4.0,9.0,87,0.00,,BKN060,0.55,209.00,VWS V14.01,2013-06-06 13:52:00,
2013-06-06 09:55:00,82.5,78.2,29.88,SSE,165,8.0,16.0,87,0.00,,CLR,0.55,227.00,VWS V14.01,2013-06-06 13:55:00,
2013-06-06 09:57:00,82.7,78.1,29.87,SSE,154,9.0,11.0,86,0.00,,BKN060,0.55,325.00,VWS V14.01,2013-06-06 13:57:00,
2013-06-06 10:00:00,82.7,78.1,29.88,SE,134,10.0,17.0,86,0.00,,CLR,0.55,243.00,VWS V14.01,2013-06-06 14:00:00,
2013-06-06 10:02:00,82.8,77.8,29.87,SE,125,9.0,10.0,85,0.00,,BKN060,0.55,276.00,VWS V14.01,2013-06-06 14:02:00,
2013-06-06 10:05:00,82.9,78.3,29.87,SW,214,12.0,12.0,86,0.00,,CLR,0.55,318.00,VWS V14.01,2013-06-06 14:05:00,
2013-06-06 10:07:00,83.1,78.1,29.88,SE,134,7.0,16.0,85,0.00,,BKN060,0.55,322.00,VWS V14.01,2013-06-06 14:07:00,
2013-06-06 10:10:00,83.2,78.2,29.88,SSE,165,6.0,7.0,85,0.00,,CLR,0.55,406.00,VWS V14.01,2013-06-06 14:10:00,
2013-06-06 10:12:00,83.4,78.1,29.88,SW,224,7.0,12.0,84,0.00,,BKN060,0.55,343.00,VWS V14.01,2013-06-06 14:12:00,
2013-06-06 10:15:00,83.4,78.1,29.88,SW,226,11.0,11.0,84,0.00,,CLR,0.55,406.00,VWS V14.01,2013-06-06 14:15:00,
2013-06-06 10:17:00,83.7,78.7,29.88,South,175,10.0,10.0,85,0.00,,BKN060,0.55,287.00,VWS V14.01,2013-06-06 14:17:00,
2013-06-06 10:20:00,83.7,78.3,29.88,SSE,159,2.0,10.0,84,0.00,,CLR,0.55,287.00,VWS V14.01,2013-06-06 14:20:00,
2013-06-06 10:22:00,83.8,78.4,29.88,SE,145,8.0,8.0,84,0.00,,BKN060,0.55,223.00,VWS V14.01,2013-06-06 14:22:00,
2013-06-06 10:25:00,83.8,78.1,29.88,SSW,202,4.0,15.0,83,0.00,,CLR,0.55,290.00,VWS V14.01,2013-06-06 14:25:00,
2013-06-06 10:27:00,83.7,77.6,29.88,SSE,150,8.0,12.0,82,0.00,,BKN060,0.55,283.00,VWS V14.01,2013-06-06 14:27:00,
2013-06-06 10:30:00,83.8,77.7,29.88,SW,214,6.0,17.0,82,0.00,,CLR,0.55,287.00,VWS V14.01,2013-06-06 14:30:00,
2013-06-06 10:32:00,83.9,77.4,29.88,SSW,213,7.0,16.0,81,0.00,,BKN060,0.55,469.00,VWS V14.01,2013-06-06 14:32:00,
2013-06-06 10:35:00,84.0,77.5,29.88,SW,225,6.0,18.0,81,0.00,,CLR,0.55,355.00,VWS V14.01,2013-06-06 14:35:00,
2013-06-06 10:37:00,84.2,77.7,29.88,SSW,200,8.0,14.0,81,0.00,,BKN060,0.55,420.00,VWS V14.01,2013-06-06 14:37:00,
2013-06-06 10:40:00,84.3,77.8,29.88,SSW,200,6.0,11.0,81,0.00,,CLR,0.55,429.00,VWS V14.01,2013-06-06 14:40:00,
2013-06-06 10:42:00,84.7,78.2,29.88,South,184,10.0,11.0,81,0.00,,BKN060,0.55,547.00,VWS V14.01,2013-06-06 14:42:00,
2013-06-06 10:45:00,84.9,78.0,29.88,SW,230,6.0,16.0,80,0.00,,CLR,0.55,568.00,VWS V14.01,2013-06-06 14:45:00,
2013-06-06 10:47:00,85.2,77.9,29.88,SW,218,10.0,24.0,79,0.00,,BKN060,0.55,568.00,VWS V14.01,2013-06-06 14:47:00,
2013-06-06 10:50:00,85.2,77.9,29.88,SSE,154,13.0,18.0,79,0.00,,CLR,0.55,568.00,VWS V14.01,2013-06-06 14:50:00,
2013-06-06 10:52:00,85.5,77.9,29.88,WSW,246,5.0,15.0,78,0.00,,OVC070,0.55,710.00,VWS V14.01,2013-06-06 14:52:00,
2013-06-06 10:55:00,85.6,78.3,29.88,SSE,151,8.0,12.0,79,0.00,,CLR,0.55,710.00,VWS V14.01,2013-06-06 14:55:00,
2013-06-06 10:57:00,85.8,78.5,29.88,SSW,205,14.0,16.0,79,0.00,,OVC070,0.55,763.00,VWS V14.01,2013-06-06 14:57:00,
2013-06-06 11:00:00,85.9,78.6,29.88,SSW,205,13.0,23.0,79,0.00,,CLR,0.55,763.00,VWS V14.01,2013-06-06 15:00:00,
2013-06-06 11:02:00,86.1,78.1,29.88,SSW,204,9.0,16.0,77,0.00,,OVC070,0.55,541.00,VWS V14.01,2013-06-06 15:02:00,
2013-06-06 11:05:00,86.1,78.1,29.88,SSE,153,7.0,18.0,77,0.00,,CLR,0.55,555.00,VWS V14.01,2013-06-06 15:05:00,
2013-06-06 11:07:00,86.2,78.2,29.88,SSE,166,6.0,13.0,77,0.00,,OVC070,0.55,533.00,VWS V14.01,2013-06-06 15:07:00,
2013-06-06 11:10:00,86.3,78.6,29.88,SW,214,9.0,13.0,78,0.00,,CLR,0.55,533.00,VWS V14.01,2013-06-06 15:10:00,
2013-06-06 11:12:00,86.3,78.2,29.88,SSE,155,9.0,20.0,77,0.00,,OVC070,0.55,408.00,VWS V14.01,2013-06-06 15:12:00,
2013-06-06 11:15:00,86.2,77.8,29.88,SSE,154,10.0,24.0,76,0.00,,CLR,0.55,401.00,VWS V14.01,2013-06-06 15:15:00,
2013-06-06 11:17:00,86.0,77.9,29.88,SSW,205,6.0,15.0,77,0.00,,OVC070,0.55,320.00,VWS V14.01,2013-06-06 15:17:00,
2013-06-06 11:20:00,85.9,77.9,29.88,SSW,193,11.0,13.0,77,0.00,,CLR,0.55,526.00,VWS V14.01,2013-06-06 15:20:00,
2013-06-06 11:22:00,85.9,78.2,29.88,SSE,153,9.0,12.0,78,0.00,,OVC070,0.55,499.00,VWS V14.01,2013-06-06 15:22:00,
2013-06-06 11:25:00,85.9,78.2,29.88,SSE,156,6.0,11.0,78,0.00,,CLR,0.55,499.00,VWS V14.01,2013-06-06 15:25:00,
2013-06-06 11:27:00,86.0,77.9,29.88,WSW,238,12.0,16.0,77,0.00,,OVC070,0.55,432.00,VWS V14.01,2013-06-06 15:27:00,
2013-06-06 11:30:00,86.0,77.9,29.88,SW,236,6.0,12.0,77,0.00,,CLR,0.55,424.00,VWS V14.01,2013-06-06 15:30:00,
2013-06-06 11:32:00,86.0,77.9,29.88,SE,128,6.0,21.0,77,0.00,,OVC070,0.55,438.00,VWS V14.01,2013-06-06 15:32:00,
2013-06-06 11:35:00,86.0,77.9,29.88,SW,219,12.0,18.0,77,0.00,,CLR,0.55,388.00,VWS V14.01,2013-06-06 15:35:00,
2013-06-06 11:37:00,85.9,77.9,29.88,SSW,192,10.0,18.0,77,0.00,,OVC070,0.55,401.00,VWS V14.01,2013-06-06 15:37:00,
2013-06-06 11:40:00,85.8,77.8,29.88,SSW,209,8.0,13.0,77,0.00,,CLR,0.55,446.00,VWS V14.01,2013-06-06 15:40:00,
2013-06-06 11:42:00,85.7,77.7,29.88,South,181,11.0,12.0,77,0.00,,OVC070,0.55,323.00,VWS V14.01,2013-06-06 15:42:00,
2013-06-06 11:45:00,85.7,77.7,29.88,SSW,198,8.0,14.0,77,0.00,,CLR,0.55,388.00,VWS V14.01,2013-06-06 15:45:00,
2013-06-06 11:47:00,85.6,78.0,29.88,SW,224,10.0,14.0,78,0.00,,BKN075,0.55,570.00,VWS V14.01,2013-06-06 15:47:00,
2013-06-06 11:50:00,85.6,78.0,29.88,SW,219,5.0,14.0,78,0.00,,CLR,0.55,522.00,VWS V14.01,2013-06-06 15:50:00,
2013-06-06 11:52:00,86.1,78.1,29.88,South,180,6.0,13.0,77,0.00,,BKN075,0.55,805.00,VWS V14.01,2013-06-06 15:52:00,
2013-06-06 11:55:00,86.2,78.2,29.88,South,190,13.0,20.0,77,0.00,,CLR,0.55,633.00,VWS V14.01,2013-06-06 15:55:00,
2013-06-06 11:57:00,86.5,77.6,29.88,South,170,22.0,22.0,75,0.00,,BKN075,0.55,517.00,VWS V14.01,2013-06-06 15:57:00,
2013-06-06 12:00:00,86.4,77.5,29.88,SSW,207,14.0,22.0,75,0.00,,CLR,0.55,483.00,VWS V14.01,2013-06-06 16:00:00,
2013-06-06 12:02:00,86.3,77.4,29.87,SW,214,9.0,18.0,75,0.00,,BKN075,0.55,417.00,VWS V14.01,2013-06-06 16:02:00,
2013-06-06 12:05:00,86.4,77.9,29.87,ESE,123,14.0,18.0,76,0.00,,CLR,0.55,547.00,VWS V14.01,2013-06-06 16:05:00,
2013-06-06 12:07:00,86.5,77.6,29.87,SSE,160,10.0,19.0,75,0.00,,BKN075,0.55,547.00,VWS V14.01,2013-06-06 16:07:00,
2013-06-06 12:10:00,86.5,77.2,29.87,SW,221,20.0,20.0,74,0.00,,CLR,0.55,387.00,VWS V14.01,2013-06-06 16:10:00,
2013-06-06 12:12:00,86.3,77.0,29.87,SSE,168,11.0,22.0,74,0.00,,BKN075,0.55,434.00,VWS V14.01,2013-06-06 16:12:00,
2013-06-06 12:15:00,86.4,77.5,29.87,SE,131,9.0,20.0,75,0.00,,CLR,0.55,847.00,VWS V14.01,2013-06-06 16:15:00,
2013-06-06 12:17:00,86.7,77.4,29.87,SSE,163,8.0,21.0,74,0.00,,BKN075,0.55,949.00,VWS V14.01,2013-06-06 16:17:00,
2013-06-06 12:20:00,86.8,77.1,29.87,SE,134,11.0,15.0,73,0.00,,CLR,0.55,930.00,VWS V14.01,2013-06-06 16:20:00,
2013-06-06 12:22:00,86.9,77.2,29.87,WSW,238,9.0,21.0,73,0.00,,BKN075,0.55,427.00,VWS V14.01,2013-06-06 16:22:00,
2013-06-06 12:25:00,86.9,77.2,29.87,SW,235,8.0,21.0,73,0.00,,CLR,0.55,886.00,VWS V14.01,2013-06-06 16:25:00,
2013-06-06 12:27:00,86.8,77.1,29.86,WSW,250,14.0,16.0,73,0.00,,BKN075,0.55,438.00,VWS V14.01,2013-06-06 16:27:00,
2013-06-06 12:30:00,86.8,77.1,29.86,SW,221,7.0,17.0,73,0.00,,CLR,0.55,485.00,VWS V14.01,2013-06-06 16:30:00,
2013-06-06 12:32:00,86.8,77.1,29.86,SSW,209,11.0,23.0,73,0.00,,BKN075,0.55,316.00,VWS V14.01,2013-06-06 16:32:00,
2013-06-06 12:35:00,86.9,77.2,29.86,SW,232,12.0,18.0,73,0.00,,CLR,0.55,925.00,VWS V14.01,2013-06-06 16:35:00,
2013-06-06 12:37:00,87.1,77.4,29.86,SW,229,14.0,18.0,73,0.00,,BKN075,0.55,958.00,VWS V14.01,2013-06-06 16:37:00,
2013-06-06 12:40:00,87.3,78.0,29.86,SSW,207,17.0,18.0,74,0.00,,CLR,0.55,958.00,VWS V14.01,2013-06-06 16:40:00,
2013-06-06 12:42:00,87.8,77.7,29.86,SSE,157,10.0,17.0,72,0.00,,BKN075,0.55,443.00,VWS V14.01,2013-06-06 16:42:00,
2013-06-06 12:45:00,87.9,77.8,29.86,SSW,194,8.0,18.0,72,0.00,,CLR,0.55,436.00,VWS V14.01,2013-06-06 16:45:00,
2013-06-06 12:47:00,87.7,77.1,29.86,SSE,158,9.0,18.0,71,0.00,,BKN075,0.55,427.00,VWS V14.01,2013-06-06 16:47:00,
2013-06-06 12:50:00,87.6,77.0,29.86,South,169,13.0,16.0,71,0.00,,CLR,0.55,427.00,VWS V14.01,2013-06-06 16:50:00,
2013-06-06 12:52:00,87.4,77.7,29.86,South,177,14.0,17.0,73,0.00,,BKN044,0.55,464.00,VWS V14.01,2013-06-06 16:52:00,
2013-06-06 12:55:00,87.3,77.6,29.86,SSW,209,7.0,15.0,73,0.00,,CLR,0.55,371.00,VWS V14.01,2013-06-06 16:55:00,
2013-06-06 12:57:00,87.1,77.4,29.86,SSE,163,8.0,18.0,73,0.00,,BKN044,0.55,475.00,VWS V14.01,2013-06-06 16:57:00,
2013-06-06 13:00:00,87.1,77.4,29.86,South,191,15.0,17.0,73,0.00,,CLR,0.55,585.00,VWS V14.01,2013-06-06 17:00:00,
2013-06-06 13:02:00,87.1,77.8,29.86,SSE,159,7.0,13.0,74,0.00,,BKN044,0.55,322.00,VWS V14.01,2013-06-06 17:02:00,
2013-06-06 13:05:00,87.0,77.3,29.86,SSW,212,10.0,18.0,73,0.00,,CLR,0.55,875.00,VWS V14.01,2013-06-06 17:05:00,
2013-06-06 13:07:00,87.4,77.7,29.86,SW,215,12.0,16.0,73,0.00,,BKN044,0.55,875.00,VWS V14.01,2013-06-06 17:07:00,
2013-06-06 13:10:00,87.5,77.8,29.86,SW,223,13.0,14.0,73,0.00,,CLR,0.55,531.00,VWS V14.01,2013-06-06 17:10:00,
2013-06-06 13:12:00,87.5,77.4,29.86,SSE,155,8.0,15.0,72,0.00,,BKN044,0.55,288.00,VWS V14.01,2013-06-06 17:12:00,
2013-06-06 13:15:00,87.4,77.7,29.86,SE,134,4.0,15.0,73,0.00,,CLR,0.55,288.00,VWS V14.01,2013-06-06 17:15:00,
2013-06-06 13:17:00,87.4,77.7,29.85,SW,222,18.0,26.0,73,0.00,,BKN044,0.55,288.00,VWS V14.01,2013-06-06 17:17:00,
2013-06-06 13:20:00,87.4,77.7,29.85,SSW,201,8.0,26.0,73,0.00,,CLR,0.55,438.00,VWS V14.01,2013-06-06 17:20:00,
2013-06-06 13:22:00,87.4,77.7,29.85,SE,128,13.0,20.0,73,0.00,,BKN044,0.55,580.00,VWS V14.01,2013-06-06 17:22:00,
2013-06-06 13:25:00,87.4,78.1,29.85,SSE,161,13.0,20.0,74,0.00,,CLR,0.55,698.00,VWS V14.01,2013-06-06 17:25:00,
2013-06-06 13:27:00,87.5,77.4,29.85,SSE,159,12.0,26.0,72,0.00,,BKN044,0.55,698.00,VWS V14.01,2013-06-06 17:27:00,
2013-06-06 13:30:00,87.5,77.8,29.85,South,179,17.0,19.0,73,0.00,,CLR,0.55,962.00,VWS V14.01,2013-06-06 17:30:00,
2013-06-06 13:32:00,87.3,77.6,29.85,WSW,239,13.0,21.0,73,0.00,,BKN044,0.55,448.00,VWS V14.01,2013-06-06 17:32:00,
2013-06-06 13:35:00,87.2,77.5,29.85,SSE,168,10.0,18.0,73,0.00,,CLR,0.55,448.00,VWS V14.01,2013-06-06 17:35:00,
2013-06-06 13:37:00,87.2,77.9,29.85,South,169,8.0,15.0,74,0.00,,BKN044,0.55,960.00,VWS V14.01,2013-06-06 17:37:00,
2013-06-06 13:40:00,87.3,78.4,29.85,SSW,200,3.0,11.0,75,0.00,,CLR,0.55,473.00,VWS V14.01,2013-06-06 17:40:00,
2013-06-06 13:42:00,87.6,78.3,29.85,SSW,205,8.0,21.0,74,0.00,,BKN044,0.55,745.00,VWS V14.01,2013-06-06 17:42:00,
2013-06-06 13:45:00,87.7,78.4,29.85,SW,219,6.0,21.0,74,0.00,,CLR,0.55,745.00,VWS V14.01,2013-06-06 17:45:00,
2013-06-06 13:47:00,87.9,78.2,29.85,South,175,7.0,16.0,73,0.00,,BKN044,0.55,814.00,VWS V14.01,2013-06-06 17:47:00,
2013-06-06 13:50:00,87.9,77.8,29.85,SSW,213,13.0,19.0,72,0.00,,CLR,0.55,814.00,VWS V14.01,2013-06-06 17:50:00,
2013-06-06 13:52:00,87.8,78.1,29.85,SW,218,7.0,17.0,73,0.00,,BKN044,0.55,318.00,VWS V14.01,2013-06-06 17:52:00,
2013-06-06 13:55:00,87.7,78.4,29.85,SW,215,11.0,14.0,74,0.00,,CLR,0.55,318.00,VWS V14.01,2013-06-06 17:55:00,
2013-06-06 13:57:00,87.7,78.0,29.84,South,175,5.0,12.0,73,0.00,,BKN044,0.55,686.00,VWS V14.01,2013-06-06 17:57:00,
2013-06-06 14:00:00,87.8,78.5,29.85,SSE,165,16.0,23.0,74,0.00,,CLR,0.55,686.00,VWS V14.01,2013-06-06 18:00:00,
2013-06-06 14:02:00,87.7,78.0,29.84,SW,216,5.0,14.0,73,0.00,,BKN044,0.55,462.00,VWS V14.01,2013-06-06 18:02:00,
2013-06-06 14:05:00,87.7,78.4,29.84,SE,129,12.0,16.0,74,0.00,,CLR,0.55,424.00,VWS V14.01,2013-06-06 18:05:00,
2013-06-06 14:07:00,87.6,77.9,29.84,South,187,10.0,15.0,73,0.00,,BKN044,0.55,424.00,VWS V14.01,2013-06-06 18:07:00,
2013-06-06 14:10:00,87.5,77.8,29.84,SSE,161,7.0,19.0,73,0.00,,CLR,0.55,436.00,VWS V14.01,2013-06-06 18:10:00,
2013-06-06 14:12:00,87.7,78.0,29.84,South,182,15.0,17.0,73,0.00,,BKN044,0.55,1056.00,VWS V14.01,2013-06-06 18:12:00,
2013-06-06 14:15:00,87.7,78.0,29.83,SSW,212,14.0,17.0,73,0.00,,CLR,0.55,555.00,VWS V14.01,2013-06-06 18:15:00,
2013-06-06 14:17:00,88.0,78.3,29.83,SW,227,6.0,17.0,73,0.00,,BKN044,0.55,394.00,VWS V14.01,2013-06-06 18:17:00,
2013-06-06 14:20:00,88.0,78.3,29.83,SSE,152,8.0,13.0,73,0.00,,CLR,0.55,496.00,VWS V14.01,2013-06-06 18:20:00,
2013-06-06 14:22:00,87.5,77.8,29.84,WSW,244,10.0,16.0,73,0.00,,BKN044,0.55,216.00,VWS V14.01,2013-06-06 18:22:00,
2013-06-06 14:25:00,87.3,77.6,29.84,SSE,158,8.0,22.0,73,0.00,,CLR,0.55,250.00,VWS V14.01,2013-06-06 18:25:00,
2013-06-06 14:27:00,87.0,78.1,29.84,SSE,152,6.0,17.0,75,0.00,,BKN044,0.55,694.00,VWS V14.01,2013-06-06 18:27:00,
2013-06-06 14:30:00,87.0,77.7,29.83,ESE,121,15.0,20.0,74,0.00,,CLR,0.55,694.00,VWS V14.01,2013-06-06 18:30:00,
2013-06-06 14:32:00,87.2,78.3,29.83,SW,223,12.0,17.0,75,0.00,,BKN044,0.55,425.00,VWS V14.01,2013-06-06 18:32:00,
2013-06-06 14:35:00,87.2,77.9,29.83,SW,218,8.0,14.0,74,0.00,,CLR,0.55,251.00,VWS V14.01,2013-06-06 18:35:00,
2013-06-06 14:37:00,87.0,78.1,29.83,SSW,213,12.0,22.0,75,0.00,,BKN044,0.55,390.00,VWS V14.01,2013-06-06 18:37:00,
2013-06-06 14:40:00,87.1,77.8,29.83,SW,217,15.0,22.0,74,0.00,,CLR,0.55,390.00,VWS V14.01,2013-06-06 18:40:00,
2013-06-06 14:42:00,87.7,78.0,29.83,SW,228,7.0,13.0,73,0.00,,BKN044,0.55,1139.00,VWS V14.01,2013-06-06 18:42:00,
2013-06-06 14:45:00,87.8,78.1,29.84,SW,223,10.0,15.0,73,0.00,,CLR,0.55,415.00,VWS V14.01,2013-06-06 18:45:00,
2013-06-06 14:47:00,88.1,78.4,29.83,SSW,202,15.0,16.0,73,0.00,,BKN044,0.55,504.00,VWS V14.01,2013-06-06 18:47:00,
2013-06-06 14:50:00,88.1,77.9,29.83,SSE,157,11.0,19.0,72,0.00,,CLR,0.55,390.00,VWS V14.01,2013-06-06 18:50:00,
2013-06-06 14:52:00,88.0,78.3,29.83,SSW,208,14.0,18.0,73,0.00,,BKN035,0.55,390.00,VWS V14.01,2013-06-06 18:52:00,
2013-06-06 14:55:00,88.1,78.4,29.83,South,188,11.0,18.0,73,0.00,,CLR,0.55,390.00,VWS V14.01,2013-06-06 18:55:00,
2013-06-06 14:58:00,88.3,79.4,29.83,South,173,6.0,14.0,75,0.01,,BKN035,0.56,246.00,VWS V14.01,2013-06-06 18:58:00,
2013-06-06 15:00:00,87.9,79.0,29.83,South,179,9.0,17.0,75,0.01,,CLR,0.56,308.00,VWS V14.01,2013-06-06 19:00:00,
2013-06-06 15:05:00,86.9,79.2,29.83,WSW,242,5.0,14.0,78,0.01,,CLR,0.56,162.00,VWS V14.01,2013-06-06 19:05:00,
2013-06-06 15:10:00,86.1,78.1,29.83,SSW,198,4.0,25.0,77,0.01,,CLR,0.56,279.00,VWS V14.01,2013-06-06 19:10:00,
2013-06-06 15:15:00,85.8,77.8,29.82,SSW,210,8.0,13.0,77,0.01,,CLR,0.56,283.00,VWS V14.01,2013-06-06 19:15:00,
2013-06-06 15:20:00,85.6,78.0,29.83,South,177,9.0,18.0,78,0.01,,CLR,0.56,165.00,VWS V14.01,2013-06-06 19:20:00,
2013-06-06 15:25:00,85.5,77.5,29.82,WSW,242,13.0,15.0,77,0.01,,CLR,0.56,234.00,VWS V14.01,2013-06-06 19:25:00,
2013-06-06 15:30:00,85.8,77.8,29.82,South,175,8.0,18.0,77,0.01,,CLR,0.56,654.00,VWS V14.01,2013-06-06 19:30:00,
2013-06-06 15:35:00,86.8,77.9,29.82,SSW,200,7.0,15.0,75,0.01,,CLR,0.56,468.00,VWS V14.01,2013-06-06 19:35:00,
2013-06-06 15:40:00,87.7,77.6,29.82,WSW,240,14.0,20.0,72,0.01,,CLR,0.56,248.00,VWS V14.01,2013-06-06 19:40:00,
2013-06-06 15:45:00,87.6,77.0,29.82,SW,225,11.0,21.0,71,0.01,,CLR,0.56,413.00,VWS V14.01,2013-06-06 19:45:00,
2013-06-06 15:50:00,87.8,76.4,29.81,South,170,9.0,31.0,69,0.01,,CLR,0.56,271.00,VWS V14.01,2013-06-06 19:50:00,
2013-06-06 15:55:00,87.7,76.3,29.81,West,261,7.0,14.0,69,0.01,,CLR,0.56,297.00,VWS V14.01,2013-06-06 19:55:00,
2013-06-06 16:00:00,87.9,76.5,29.81,WSW,238,10.0,18.0,69,0.01,,CLR,0.56,248.00,VWS V14.01,2013-06-06 20:00:00,
2013-06-06 16:05:00,87.9,76.5,29.82,WSW,251,22.0,24.0,69,0.00,,CLR,0.56,292.00,VWS V14.01,2013-06-06 20:05:00,
2013-06-06 16:10:00,88.2,76.3,29.82,WSW,242,17.0,21.0,68,0.00,,CLR,0.56,253.00,VWS V14.01,2013-06-06 20:10:00,
2013-06-06 16:15:00,88.2,75.9,29.82,West,272,11.0,20.0,67,0.00,,CLR,0.56,362.00,VWS V14.01,2013-06-06 20:15:00,
2013-06-06 16:20:00,88.8,76.4,29.82,SW,225,18.0,23.0,67,0.00,,CLR,0.56,302.00,VWS V14.01,2013-06-06 20:20:00,
2013-06-06 16:25:00,88.8,76.0,29.82,SW,225,18.0,21.0,66,0.00,,CLR,0.56,350.00,VWS V14.01,2013-06-06 20:25:00,
2013-06-06 16:30:00,88.9,76.5,29.82,WSW,245,7.0,13.0,67,0.00,,CLR,0.56,295.00,VWS V14.01,2013-06-06 20:30:00,
2013-06-06 16:35:00,88.8,76.4,29.82,SSW,200,9.0,13.0,67,0.00,,CLR,0.56,169.00,VWS V14.01,2013-06-06 20:35:00,
2013-06-06 16:40:00,88.2,77.2,29.82,SW,217,9.0,14.0,70,0.00,,CLR,0.56,132.00,VWS V14.01,2013-06-06 20:40:00,
2013-06-06 16:45:00,86.6,77.7,29.82,SW,224,7.0,15.0,75,0.02,,CLR,0.58,188.00,VWS V14.01,2013-06-06 20:45:00,
2013-06-06 16:50:00,85.0,77.8,29.82,South,179,10.0,11.0,79,0.03,,CLR,0.59,264.00,VWS V14.01,2013-06-06 20:50:00,
2013-06-06 16:55:00,84.7,77.5,29.81,WSW,245,9.0,14.0,79,0.03,,CLR,0.59,148.00,VWS V14.01,2013-06-06 20:55:00,
2013-06-06 17:00:00,84.4,77.6,29.82,SSW,202,7.0,19.0,80,0.03,,CLR,0.59,229.00,VWS V14.01,2013-06-06 21:00:00,
2013-06-06 17:05:00,83.9,77.8,29.82,SSW,198,7.0,8.0,82,0.03,,CLR,0.59,251.00,VWS V14.01,2013-06-06 21:05:00,
2013-06-06 17:10:00,83.2,77.1,29.82,SSE,157,5.0,13.0,82,0.03,,CLR,0.59,214.00,VWS V14.01,2013-06-06 21:10:00,
2013-06-06 17:15:00,82.9,77.2,29.81,WSW,247,2.0,4.0,83,0.03,,CLR,0.59,292.00,VWS V14.01,2013-06-06 21:15:00,
2013-06-06 17:20:00,83.2,77.5,29.81,SSW,199,7.0,9.0,83,0.03,,CLR,0.59,253.00,VWS V14.01,2013-06-06 21:20:00,
2013-06-06 17:25:00,82.8,76.4,29.83,West,263,12.0,21.0,81,0.03,,CLR,0.59,35.00,VWS V14.01,2013-06-06 21:25:00,
2013-06-06 17:30:00,81.4,72.3,29.83,WSW,254,6.0,17.0,74,0.03,,CLR,0.59,53.00,VWS V14.01,2013-06-06 21:30:00,
2013-06-06 17:35:00,80.3,72.4,29.84,WSW,252,9.0,15.0,77,0.03,,CLR,0.59,16.00,VWS V14.01,2013-06-06 21:35:00,
2013-06-06 17:40:00,79.2,72.1,29.84,West,271,4.0,12.0,79,0.06,,CLR,0.62,37.00,VWS V14.01,2013-06-06 21:40:00,
2013-06-06 17:45:00,77.8,71.5,29.83,West,263,5.0,6.0,81,0.09,,CLR,0.65,76.00,VWS V14.01,2013-06-06 21:45:00,
2013-06-06 17:50:00,76.9,72.1,29.83,WSW,257,3.0,6.0,85,0.07,,CLR,0.65,95.00,VWS V14.01,2013-06-06 21:50:00,
2013-06-06 17:55:00,76.4,71.9,29.82,WNW,296,5.0,9.0,86,0.06,,CLR,0.65,79.00,VWS V14.01,2013-06-06 21:55:00,
2013-06-06 18:00:00,76.2,72.1,29.82,West,262,3.0,3.0,87,0.06,,CLR,0.65,51.00,VWS V14.01,2013-06-06 22:00:00,
2013-06-06 18:05:00,76.0,71.9,29.83,West,261,0.0,2.0,87,0.06,,CLR,0.65,54.00,VWS V14.01,2013-06-06 22:05:00,
2013-06-06 18:10:00,75.8,72.0,29.83,West,279,2.0,2.0,88,0.06,,CLR,0.65,53.00,VWS V14.01,2013-06-06 22:10:00,
2013-06-06 18:14:00,75.8,72.0,29.84,WSW,242,4.0,5.0,88,0.06,,BKN035,0.65,39.00,VWS V14.01,2013-06-06 22:14:00,
2013-06-06 18:15:00,75.8,72.0,29.84,SW,217,5.0,5.0,88,0.06,,BKN035,0.65,39.00,VWS V14.01,2013-06-06 22:15:00,
2013-06-06 18:20:00,75.7,71.9,29.84,WSW,252,3.0,8.0,88,0.06,,BKN035,0.65,37.00,VWS V14.01,2013-06-06 22:20:00,
2013-06-06 18:25:00,75.7,71.9,29.84,West,275,5.0,6.0,88,0.06,,-RA,0.65,51.00,VWS V14.01,2013-06-06 22:25:00,
2013-06-06 18:30:00,75.9,72.1,29.84,WSW,248,5.0,6.0,88,0.06,,-RA,0.65,67.00,VWS V14.01,2013-06-06 22:30:00,
2013-06-06 18:35:00,76.1,72.3,29.83,WSW,242,2.0,5.0,88,0.06,,-RA,0.65,60.00,VWS V14.01,2013-06-06 22:35:00,
2013-06-06 18:40:00,76.3,72.2,29.83,WSW,244,4.0,7.0,87,0.03,,-RA,0.65,86.00,VWS V14.01,2013-06-06 22:40:00,
2013-06-06 18:45:00,76.6,72.4,29.84,WSW,242,4.0,8.0,87,0.00,,-RA,0.65,62.00,VWS V14.01,2013-06-06 22:45:00,
2013-06-06 18:50:00,76.7,72.2,29.84,SSW,192,1.0,5.0,86,0.00,,-RA,0.65,35.00,VWS V14.01,2013-06-06 22:50:00,
2013-06-06 18:55:00,76.7,72.5,29.84,SSW,199,1.0,7.0,87,0.00,,-RA,0.65,21.00,VWS V14.01,2013-06-06 22:55:00,
2013-06-06 19:00:00,76.7,72.5,29.84,SSW,209,4.0,4.0,87,0.01,,-RA,0.66,12.00,VWS V14.01,2013-06-06 23:00:00,
2013-06-06 19:05:00,76.5,72.7,29.84,SSW,211,2.0,7.0,88,0.02,,-RA,0.67,9.00,VWS V14.01,2013-06-06 23:05:00,
2013-06-06 19:10:00,76.3,72.5,29.84,SSE,158,3.0,4.0,88,0.04,,-RA,0.69,9.00,VWS V14.01,2013-06-06 23:10:00,
2013-06-06 19:15:00,76.1,72.6,29.84,SSW,206,0.0,0.0,89,0.04,,-RA,0.69,9.00,VWS V14.01,2013-06-06 23:15:00,
2013-06-06 19:20:00,75.9,72.4,29.84,SSE,157,3.0,3.0,89,0.06,,-RA,0.71,9.00,VWS V14.01,2013-06-06 23:20:00,
2013-06-06 19:25:00,75.7,72.6,29.84,SSE,158,4.0,4.0,90,0.06,,-RA,0.71,9.00,VWS V14.01,2013-06-06 23:25:00,
2013-06-06 19:30:00,75.6,72.8,29.85,SSE,156,3.0,5.0,91,0.07,,-RA,0.72,11.00,VWS V14.01,2013-06-06 23:30:00,
2013-06-06 19:35:00,75.5,72.7,29.85,SSE,165,4.0,5.0,91,0.08,,-RA,0.73,9.00,VWS V14.01,2013-06-06 23:35:00,
2013-06-06 19:40:00,75.4,72.6,29.84,SSE,158,3.0,4.0,91,0.08,,-RA,0.73,7.00,VWS V14.01,2013-06-06 23:40:00,
2013-06-06 19:45:00,75.3,72.5,29.85,SSE,163,2.0,4.0,91,0.08,,-RA,0.73,0.00,VWS V14.01,2013-06-06 23:45:00,
2013-06-06 19:50:00,75.2,72.4,29.85,SSE,153,4.0,8.0,91,0.08,,-RA,0.73,0.00,VWS V14.01,2013-06-06 23:50:00,
2013-06-06 19:55:00,75.2,72.7,29.85,South,177,6.0,6.0,92,0.08,,BKN080,0.73,0.00,VWS V14.01,2013-06-06 23:55:00,
2013-06-06 20:00:00,75.2,72.7,29.85,SSE,157,5.0,7.0,92,0.07,,BKN080,0.73,0.00,VWS V14.01,2013-06-07 00:00:00,
2013-06-06 20:05:00,75.0,72.5,29.85,SSE,153,6.0,7.0,92,0.06,,BKN080,0.73,0.00,VWS V14.01,2013-06-07 00:05:00,
2013-06-06 20:10:00,75.0,72.5,29.84,SSW,199,4.0,7.0,92,0.05,,BKN080,0.73,0.00,VWS V14.01,2013-06-07 00:10:00,
2013-06-06 20:15:00,74.9,72.4,29.84,SSE,150,7.0,10.0,92,0.04,,BKN080,0.73,0.00,VWS V14.01,2013-06-07 00:15:00,
2013-06-06 20:20:00,75.0,72.8,29.84,East,90,10.0,11.0,93,0.03,,BKN080,0.73,0.00,VWS V14.01,2013-06-07 00:20:00,
2013-06-06 20:25:00,75.0,72.8,29.84,South,183,8.0,16.0,93,0.02,,-RA,0.73,0.00,VWS V14.01,2013-06-07 00:25:00,
2013-06-06 20:30:00,75.0,72.8,29.85,SW,225,6.0,8.0,93,0.01,,-RA,0.73,0.00,VWS V14.01,2013-06-07 00:30:00,
2013-06-06 20:35:00,75.1,72.9,29.85,WSW,242,8.0,12.0,93,0.00,,-RA,0.73,0.00,VWS V14.01,2013-06-07 00:35:00,
2013-06-06 20:40:00,75.2,73.0,29.85,WSW,247,2.0,11.0,93,0.00,,-RA,0.73,0.00,VWS V14.01,2013-06-07 00:40:00,
2013-06-06 20:45:00,75.4,73.2,29.86,SSW,203,11.0,11.0,93,0.00,,-RA,0.73,0.00,VWS V14.01,2013-06-07 00:45:00,
2013-06-06 20:50:00,75.6,73.4,29.86,West,278,6.0,9.0,93,0.00,,-RA,0.73,0.00,VWS V14.01,2013-06-07 00:50:00,
2013-06-06 20:55:00,75.7,73.5,29.86,SSW,194,5.0,15.0,93,0.00,,-RA,0.73,0.00,VWS V14.01,2013-06-07 00:55:00,
2013-06-06 21:00:00,75.7,73.5,29.87,SSW,202,4.0,9.0,93,0.00,,-RA,0.73,0.00,VWS V14.01,2013-06-07 01:00:00,
2013-06-06 21:05:00,75.7,73.2,29.87,South,182,4.0,8.0,92,0.00,,-RA,0.73,0.00,VWS V14.01,2013-06-07 01:05:00,
2013-06-06 21:10:00,75.6,73.1,29.87,SSW,192,7.0,7.0,92,0.00,,-RA,0.73,0.00,VWS V14.01,2013-06-07 01:10:00,
2013-06-06 21:15:00,75.6,73.1,29.87,SSW,193,4.0,6.0,92,0.00,,-RA,0.73,0.00,VWS V14.01,2013-06-07 01:15:00,
2013-06-06 21:20:00,75.7,73.2,29.87,WSW,238,1.0,5.0,92,0.00,,-RA,0.73,0.00,VWS V14.01,2013-06-07 01:20:00,
2013-06-06 21:24:00,75.8,73.0,29.87,WSW,249,4.0,6.0,91,0.00,,-RA,0.73,0.00,VWS V14.01,2013-06-07 01:24:00,
2013-06-06 21:25:00,75.7,72.9,29.87,SSW,192,4.0,6.0,91,0.00,,CLR,0.73,0.00,VWS V14.01,2013-06-07 01:25:00,
2013-06-06 21:29:00,75.9,73.1,29.87,SW,221,2.0,3.0,91,0.00,,-RA,0.73,0.00,VWS V14.01,2013-06-07 01:29:00,
2013-06-06 21:30:00,75.8,73.0,29.87,SSW,211,0.0,1.0,91,0.00,,CLR,0.73,0.00,VWS V14.01,2013-06-07 01:30:00,
2013-06-06 21:34:00,75.9,73.1,29.87,SSW,192,1.0,6.0,91,0.00,,-RA,0.73,0.00,VWS V14.01,2013-06-07 01:34:00,
2013-06-06 21:35:00,76.0,73.2,29.87,SW,219,3.0,7.0,91,0.00,,CLR,0.73,0.00,VWS V14.01,2013-06-07 01:35:00,
2013-06-06 21:39:00,76.0,73.2,29.87,WSW,244,2.0,3.0,91,0.00,,-RA,0.73,0.00,VWS V14.01,2013-06-07 01:39:00,
2013-06-06 21:40:00,76.0,73.2,29.86,WSW,240,1.0,4.0,91,0.00,,CLR,0.73,0.00,VWS V14.01,2013-06-07 01:40:00,
2013-06-06 21:44:00,76.1,73.3,29.87,SW,225,0.0,2.0,91,0.00,,-RA,0.73,0.00,VWS V14.01,2013-06-07 01:44:00,
2013-06-06 21:45:00,76.1,73.3,29.87,SW,225,0.0,2.0,91,0.00,,CLR,0.73,0.00,VWS V14.01,2013-06-07 01:45:00,
2013-06-06 21:49:00,76.0,73.2,29.87,WSW,256,3.0,4.0,91,0.00,,FEW110,0.73,0.00,VWS V14.01,2013-06-07 01:49:00,
2013-06-06 21:50:00,76.1,73.3,29.87,WSW,255,2.0,5.0,91,0.00,,CLR,0.73,0.00,VWS V14.01,2013-06-07 01:50:00,
2013-06-06 21:54:00,76.0,73.2,29.87,SSW,209,1.0,5.0,91,0.00,,FEW110,0.73,0.00,VWS V14.01,2013-06-07 01:54:00,
2013-06-06 21:55:00,76.0,73.2,29.87,SSW,209,2.0,5.0,91,0.00,,CLR,0.73,0.00,VWS V14.01,2013-06-07 01:55:00,
2013-06-06 21:59:00,76.0,73.2,29.87,South,191,3.0,4.0,91,0.00,,FEW110,0.73,0.00,VWS V14.01,2013-06-07 01:59:00,
2013-06-06 22:00:00,76.0,73.2,29.87,SW,219,3.0,3.0,91,0.00,,CLR,0.73,0.00,VWS V14.01,2013-06-07 02:00:00,
2013-06-06 22:04:00,75.9,73.1,29.87,SW,223,5.0,5.0,91,0.00,,FEW110,0.73,0.00,VWS V14.01,2013-06-07 02:04:00,
2013-06-06 22:05:00,75.9,73.1,29.87,SSW,205,3.0,4.0,91,0.00,,CLR,0.73,0.00,VWS V14.01,2013-06-07 02:05:00,
2013-06-06 22:09:00,75.8,73.0,29.87,SW,229,2.0,2.0,91,0.00,,FEW110,0.73,0.00,VWS V14.01,2013-06-07 02:09:00,
2013-06-06 22:10:00,75.8,73.0,29.87,SW,229,2.0,3.0,91,0.00,,CLR,0.73,0.00,VWS V14.01,2013-06-07 02:10:00,
2013-06-06 22:14:00,75.8,73.3,29.88,SW,235,2.0,3.0,92,0.00,,FEW110,0.73,0.00,VWS V14.01,2013-06-07 02:14:00,
2013-06-06 22:15:00,75.8,73.0,29.87,SW,235,1.0,3.0,91,0.00,,CLR,0.73,0.00,VWS V14.01,2013-06-07 02:15:00,
2013-06-06 22:19:00,75.8,73.3,29.88,South,183,2.0,5.0,92,0.00,,FEW110,0.73,0.00,VWS V14.01,2013-06-07 02:19:00,
2013-06-06 22:20:00,75.8,73.3,29.88,WSW,248,1.0,2.0,92,0.00,,CLR,0.73,0.00,VWS V14.01,2013-06-07 02:20:00,
2013-06-06 22:24:00,75.8,73.3,29.88,WSW,244,3.0,3.0,92,0.00,,FEW110,0.73,0.00,VWS V14.01,2013-06-07 02:24:00,
2013-06-06 22:25:00,75.8,73.3,29.88,WSW,244,2.0,3.0,92,0.00,,CLR,0.73,0.00,VWS V14.01,2013-06-07 02:25:00,
2013-06-06 22:29:00,75.8,73.3,29.89,WSW,246,1.0,3.0,92,0.00,,FEW110,0.73,0.00,VWS V14.01,2013-06-07 02:29:00,
2013-06-06 22:30:00,75.7,73.2,29.89,WSW,246,2.0,4.0,92,0.00,,CLR,0.73,0.00,VWS V14.01,2013-06-07 02:30:00,
2013-06-06 22:34:00,75.8,73.3,29.89,WSW,253,0.0,4.0,92,0.00,,FEW110,0.73,0.00,VWS V14.01,2013-06-07 02:34:00,
2013-06-06 22:35:00,75.7,73.2,29.89,WSW,253,1.0,4.0,92,0.00,,CLR,0.73,0.00,VWS V14.01,2013-06-07 02:35:00,
2013-06-06 22:39:00,75.7,73.2,29.89,SW,221,0.0,1.0,92,0.00,,FEW110,0.73,0.00,VWS V14.01,2013-06-07 02:39:00,
2013-06-06 22:40:00,75.8,73.3,29.89,SW,220,0.0,2.0,92,0.00,,CLR,0.73,0.00,VWS V14.01,2013-06-07 02:40:00,
2013-06-06 22:44:00,75.7,73.2,29.88,WSW,238,1.0,2.0,92,0.00,,FEW110,0.73,0.00,VWS V14.01,2013-06-07 02:44:00,
2013-06-06 22:45:00,75.7,73.2,29.88,WSW,238,1.0,4.0,92,0.00,,CLR,0.73,0.00,VWS V14.01,2013-06-07 02:45:00,
2013-06-06 22:49:00,75.7,73.2,29.89,WSW,242,2.0,4.0,92,0.00,,-RA,0.73,0.00,VWS V14.01,2013-06-07 02:49:00,
2013-06-06 22:50:00,75.7,73.2,29.89,WSW,242,3.0,4.0,92,0.00,,CLR,0.73,0.00,VWS V14.01,2013-06-07 02:50:00,
2013-06-06 22:54:00,75.6,73.1,29.89,WSW,240,1.0,5.0,92,0.00,,-RA,0.73,0.00,VWS V14.01,2013-06-07 02:54:00,
2013-06-06 22:55:00,75.7,73.2,29.89,WSW,242,1.0,5.0,92,0.00,,CLR,0.73,0.00,VWS V14.01,2013-06-07 02:55:00,
2013-06-06 22:59:00,75.6,73.1,29.89,WSW,244,0.0,2.0,92,0.00,,-RA,0.73,0.00,VWS V14.01,2013-06-07 02:59:00,
2013-06-06 23:00:00,75.6,73.1,29.89,WSW,244,0.0,3.0,92,0.00,,CLR,0.73,0.00,VWS V14.01,2013-06-07 03:00:00,
2013-06-06 23:04:00,75.5,73.0,29.88,WSW,244,0.0,0.0,92,0.00,,-RA,0.73,0.00,VWS V14.01,2013-06-07 03:04:00,
2013-06-06 23:05:00,75.4,72.9,29.88,WSW,244,0.0,1.0,92,0.00,,CLR,0.73,0.00,VWS V14.01,2013-06-07 03:05:00,
2013-06-06 23:09:00,75.4,72.9,29.88,WSW,253,0.0,0.0,92,0.00,,-RA,0.73,0.00,VWS V14.01,2013-06-07 03:09:00,
2013-06-06 23:10:00,75.4,72.9,29.88,WSW,253,0.0,0.0,92,0.00,,CLR,0.73,0.00,VWS V14.01,2013-06-07 03:10:00,
2013-06-06 23:14:00,75.3,72.8,29.88,SW,236,3.0,3.0,92,0.00,,-RA,0.73,0.00,VWS V14.01,2013-06-07 03:14:00,
2013-06-06 23:15:00,75.3,72.8,29.88,SW,236,1.0,2.0,92,0.00,,CLR,0.73,0.00,VWS V14.01,2013-06-07 03:15:00,
2013-06-06 23:19:00,75.3,72.8,29.88,SW,234,2.0,3.0,92,0.00,,-RA,0.73,0.00,VWS V14.01,2013-06-07 03:19:00,
2013-06-06 23:20:00,75.3,72.8,29.88,SW,235,1.0,3.0,92,0.00,,CLR,0.73,0.00,VWS V14.01,2013-06-07 03:20:00,
2013-06-06 23:24:00,75.2,72.4,29.88,SSW,212,1.0,2.0,91,0.00,,-RA,0.73,0.00,VWS V14.01,2013-06-07 03:24:00,
2013-06-06 23:25:00,75.2,72.4,29.88,SSW,212,1.0,3.0,91,0.00,,CLR,0.73,0.00,VWS V14.01,2013-06-07 03:25:00,
2013-06-06 23:29:00,75.1,72.3,29.88,SSW,204,2.0,3.0,91,0.00,,-RA,0.73,0.00,VWS V14.01,2013-06-07 03:29:00,
2013-06-06 23:30:00,75.2,72.4,29.88,SSW,204,0.0,3.0,91,0.00,,CLR,0.73,0.00,VWS V14.01,2013-06-07 03:30:00,
2013-06-06 23:34:00,75.1,72.6,29.88,SSW,207,2.0,3.0,92,0.00,,-RA,0.73,0.00,VWS V14.01,2013-06-07 03:34:00,
2013-06-06 23:35:00,75.1,72.6,29.88,SSW,207,3.0,3.0,92,0.00,,CLR,0.73,0.00,VWS V14.01,2013-06-07 03:35:00,
2013-06-06 23:39:00,75.1,72.6,29.87,SSE,157,1.0,4.0,92,0.00,,-RA,0.73,0.00,VWS V14.01,2013-06-07 03:39:00,
2013-06-06 23:40:00,75.1,72.6,29.87,SSE,163,3.0,4.0,92,0.00,,CLR,0.73,0.00,VWS V14.01,2013-06-07 03:40:00,
2013-06-06 23:44:00,75.2,72.4,29.87,SSE,157,1.0,3.0,91,0.00,,-RA,0.73,0.00,VWS V14.01,2013-06-07 03:44:00,
2013-06-06 23:45:00,75.2,72.4,29.87,SE,132,1.0,3.0,91,0.00,,CLR,0.73,0.00,VWS V14.01,2013-06-07 03:45:00,
2013-06-06 23:49:00,75.2,72.4,29.87,South,175,3.0,3.0,91,0.00,,-RA,0.73,0.00,VWS V14.01,2013-06-07 03:49:00,
2013-06-06 23:50:00,75.2,72.4,29.87,South,174,2.0,3.0,91,0.00,,CLR,0.73,0.00,VWS V14.01,2013-06-07 03:50:00,
2013-06-06 23:54:00,75.1,72.3,29.87,SSE,168,1.0,6.0,91,0.00,,CLR,0.73,0.00,VWS V14.01,2013-06-07 03:54:00,
2013-06-06 23:55:00,75.2,72.4,29.87,SW,218,4.0,6.0,91,0.00,,CLR,0.73,0.00,VWS V14.01,2013-06-07 03:55:00,
2013-06-06 23:59:00,75.1,72.3,29.87,SSW,209,0.0,4.0,91,0.00,,CLR,0.00,0.00,VWS V14.01,2013-06-07 03:59:00,